WetterOnline ( http://www.wetteronline.de )

Wetter aktuell Ingolstadt

Aktuelles Wetter: Weißenburg (424m)

6-stündlich | Neueste Meldungen
Ortszeit Temperatur Wetter
So, 21.10. 8:00 3.4° C bedeckt
So, 21.10. 2:00 3.0° C leicht bewölkt
Sa, 20.10. 20:00 10.7° C wolkig
Sa, 20.10. 14:00 15.3° C bewölkt
Sa, 20.10. 8:00 5.6° C bedeckt
Sa, 20.10. 2:00 5.5° C fast wolkenlos
Fr, 19.10. 20:00 11.3° C wolkig
Fr, 19.10. 14:00 15.2° C wolkenlos
Ortszeit Temperatur Wetter
So, 21.10. 8:10 3.8° C bedeckt
So, 21.10. 8:00 3.4° C bedeckt
So, 21.10. 7:50 3.4° C bedeckt
So, 21.10. 7:40 3.4° C bedeckt
So, 21.10. 7:30 3.2° C bedeckt
So, 21.10. 7:20 3.2° C bedeckt
So, 21.10. 7:00 3.3° C bedeckt
So, 21.10. 6:30 3.3° C bedeckt
So, 21.10. 6:00 3.2° C bedeckt
So, 21.10. 5:30 3.0° C bedeckt
So, 21.10. 5:00 1.8° C bedeckt
Ortszeit Relative Feuchte Sichtweite
So, 21.10. 8:00 92% 10 km
So, 21.10. 2:00 97% 6 km
Sa, 20.10. 20:00 68% 19 km
Sa, 20.10. 14:00 63% 6 km
Sa, 20.10. 8:00 100% 1.6 km
Sa, 20.10. 2:00 100% 1.1 km
Fr, 19.10. 20:00 83% 5.0 km
Fr, 19.10. 14:00 71% 4.7 km
Ortszeit Relative Feuchte Sichtweite
So, 21.10. 8:10 95% -
So, 21.10. 8:00 92% 10 km
So, 21.10. 7:50 92% -
So, 21.10. 7:40 94% -
So, 21.10. 7:30 95% 8 km
So, 21.10. 7:20 95% -
So, 21.10. 7:00 96% 8 km
So, 21.10. 6:30 94% 8 km
So, 21.10. 6:00 96% 8 km
So, 21.10. 5:30 96% 8 km
So, 21.10. 5:00 97% 7 km
Ortszeit Niederschlagsmenge Niederschlagsart
So, 21.10. 8:00 0.0 l/m2 in 12 Std. -
So, 21.10. 2:00 0.0 l/m2 in 6 Std. -
Sa, 20.10. 20:00 0.0 l/m2 in 12 Std. -
Sa, 20.10. 14:00 0.0 l/m2 in 6 Std. -
Sa, 20.10. 8:00 0.0 l/m2 in 12 Std. -
Sa, 20.10. 2:00 0.0 l/m2 in 6 Std. -
Fr, 19.10. 20:00 0.1 l/m2 in 12 Std. -
Fr, 19.10. 14:00 0.1 l/m2 in 6 Std. -
Ortszeit Niederschlagsmenge Niederschlagsart
So, 21.10. 8:10 keine Meldung -
So, 21.10. 8:00 0.0 l/m2 in 1 Std. -
So, 21.10. 7:50 keine Meldung -
So, 21.10. 7:40 keine Meldung -
So, 21.10. 7:30 0.0 l/m2 in 1 Std. -
So, 21.10. 7:20 keine Meldung -
So, 21.10. 7:00 0.0 l/m2 in 1 Std. -
So, 21.10. 6:30 0.0 l/m2 in 1 Std. -
So, 21.10. 6:00 0.0 l/m2 in 1 Std. -
So, 21.10. 5:30 0.0 l/m2 in 1 Std. -
So, 21.10. 5:00 0.0 l/m2 in 1 Std. -
Ortszeit Stärke Spitze Richtung
km/h Bft. km/h Grad Sektor
So, 21.10. 8:00 0 0 7 - -
So, 21.10. 2:00 4 1 7 190° S
Sa, 20.10. 20:00 7 2 25 320° NW
Sa, 20.10. 14:00 11 2 22 310° NW
Sa, 20.10. 8:00 4 1 11 60° NO
Sa, 20.10. 2:00 6 1 9 210° SW
Fr, 19.10. 20:00 6 1 20 360° N
Fr, 19.10. 14:00 9 2 17 20° N
Ortszeit Stärke Spitze Richtung
km/h Bft. km/h Grad Sektor
So, 21.10. 8:10 4 1 - 250° W
So, 21.10. 8:00 0 0 4 - -
So, 21.10. 7:50 2 1 - 230° SW
So, 21.10. 7:40 2 1 - 30° NO
So, 21.10. 7:30 2 1 4 150° SO
So, 21.10. 7:20 2 1 - 150° SO
So, 21.10. 7:00 4 1 7 180° S
So, 21.10. 6:30 6 1 7 330° NW
So, 21.10. 6:00 4 1 7 310° NW
So, 21.10. 5:30 4 1 4 20° N
So, 21.10. 5:00 0 0 4 - -
Ortszeit Untergrenze Bedeckung Gattung
total tief tief mittel hoch
So, 21.10. 8:00 3000 m 8/8 8/8 - - -
So, 21.10. 2:00 5700 m 4/8 3/8 - - -
Sa, 20.10. 20:00 7200 m 8/8 0/8 - - -
Sa, 20.10. 14:00 780 m 7/8 7/8 - - -
Sa, 20.10. 8:00 1320 m 8/8 8/8 - - -
Sa, 20.10. 2:00 1500 m 1/8 - - - -
Fr, 19.10. 20:00 8100 m 8/8 0/8 - - -
Fr, 19.10. 14:00 - 0/8 0/8 - - -
Ortszeit Bedeckungsgrad in Achtel und Wolkenuntergrenze
So, 21.10. 8:10 7(3000m) 8(3900m)
So, 21.10. 8:00 1(3000m) 8(4200m)
So, 21.10. 7:50 1(3000m) 8(4200m)
So, 21.10. 7:40 1(3000m) 2(3600m) 8(4200m)
So, 21.10. 7:30 7(3300m) 8(4200m)
So, 21.10. 7:20 7(3300m) 8(4200m)
So, 21.10. 7:00 8(3300m)
So, 21.10. 6:30 8(3300m)
So, 21.10. 6:00 7(3000m) 8(3600m)
So, 21.10. 5:30 8(3300m) 8(3900m)
So, 21.10. 5:00 8(3600m) 8(5400m)
Ortszeit Luftdruck NN (hPa) Tendenz (hPa in 3 Std.)
So, 21.10. 8:00 1030 + 0,1
So, 21.10. 2:00 1031 - 0,1
Sa, 20.10. 20:00 1029 + 0,9
Sa, 20.10. 14:00 1028 + 0,2
Sa, 20.10. 8:00 1028 + 1,5
Sa, 20.10. 2:00 1027 + 0,6
Fr, 19.10. 20:00 1024 + 1,0
Fr, 19.10. 14:00 1022 - 0,7
Ortszeit Luftdruck NN (hPa) Tendenz (hPa in 3 Std.)
So, 21.10. 8:10 1030 keine Meldung
So, 21.10. 8:00 1030 + 0,1
So, 21.10. 7:50 1030 keine Meldung
So, 21.10. 7:40 1030 keine Meldung
So, 21.10. 7:30 1030 + 0,1
So, 21.10. 7:20 1030 keine Meldung
So, 21.10. 7:00 1030 - 0,1
So, 21.10. 6:30 1031 + 0,2
So, 21.10. 6:00 1031 + 0,2
So, 21.10. 5:30 1031 - 0,1
So, 21.10. 5:00 1031 - 0,5
Ortszeit Schneehöhe (cm)
So, 21.10. 8:00 0
So, 21.10. 2:00 0
Sa, 20.10. 20:00 0
Sa, 20.10. 14:00 0
Sa, 20.10. 8:00 0
Sa, 20.10. 2:00 0
Fr, 19.10. 20:00 0
Fr, 19.10. 14:00 0
Ortszeit Schneehöhe (cm)
So, 21.10. 8:10 0
So, 21.10. 8:00 0
So, 21.10. 7:50 0
So, 21.10. 7:40 -
So, 21.10. 7:30 0
So, 21.10. 7:20 0
So, 21.10. 7:00 0
So, 21.10. 6:30 0
So, 21.10. 6:00 0
So, 21.10. 5:30 0
So, 21.10. 5:00 0
Link zu dieser Seite / Seite empfehlen

Das Wetter in ...